This is the latest recevied weather packets stored in our database for station/object WD4IXD-WX. If no packets are shown the sender has not sent any weather packets the latest 10 day(s).
| Time | Temp. | Humidity | Pressure | Rain* | Wind** | Luminosity | Snow |
|---|---|---|---|---|---|---|---|
| 1778088904 | -3.89° C | 83% | 1017.2 hPa | 0.25 mm | - | 425 W/m² | - |
| 1778088604 | -3.89° C | 83% | 1017.1 hPa | 0.25 mm | - | 466 W/m² | - |
| 1778088304 | -3.89° C | 84% | 1017 hPa | 0.25 mm | - | 506 W/m² | - |
| 1778088004 | -3.89° C | 83% | 1017 hPa | 0.25 mm | - | 529 W/m² | - |
| 1778087704 | -3.89° C | 82% | 1017 hPa | 0 mm | - | 573 W/m² | - |
| 1778087403 | -3.89° C | 83% | 1016.9 hPa | 0 mm | - | 510 W/m² | - |
| 1778087104 | -3.89° C | 84% | 1016.9 hPa | 0 mm | - | 513 W/m² | - |
| 1778086803 | -3.89° C | 84% | 1016.8 hPa | 0 mm | - | 582 W/m² | - |
| 1778086504 | -4.44° C | 83% | 1016.7 hPa | 0 mm | - | 592 W/m² | - |
| 1778086204 | -3.89° C | 83% | 1016.8 hPa | 0 mm | - | 462 W/m² | - |
| 1778085904 | -3.89° C | 83% | 1016.7 hPa | 0 mm | - | 439 W/m² | - |
| 1778085604 | -3.33° C | 83% | 1016.7 hPa | 0 mm | - | 404 W/m² | - |
| 1778085304 | -3.33° C | 84% | 1016.6 hPa | 0 mm | - | 360 W/m² | - |
| 1778085004 | -2.78° C | 85% | 1016.5 hPa | 0 mm | - | 364 W/m² | - |
| 1778084704 | -3.33° C | 85% | 1016.5 hPa | 0 mm | - | 359 W/m² | - |
| 1778084404 | -3.33° C | 86% | 1016.4 hPa | 0 mm | - | 318 W/m² | - |
| 1778084103 | -3.33° C | 87% | 1016.4 hPa | 0 mm | - | 285 W/m² | - |
| 1778083804 | -3.89° C | 86% | 1016.2 hPa | 0 mm | - | 193 W/m² | - |
| 1778083504 | -3.89° C | 87% | 1016.1 hPa | 0 mm | - | 153 W/m² | - |
| 1778083204 | -4.44° C | 87% | 1016.3 hPa | 0 mm | - | 153 W/m² | - |
| 1778082904 | -4.44° C | 88% | 1016.4 hPa | 0 mm | - | 142 W/m² | - |
| 1778082604 | -5° C | 88% | 1016.5 hPa | 0 mm | - | 149 W/m² | - |
| 1778082304 | -5.56° C | 88% | 1016.4 hPa | 0 mm | - | 149 W/m² | - |
| 1778082004 | -5.56° C | 89% | 1016.4 hPa | 0 mm | - | 139 W/m² | - |
| 1778081704 | -5.56° C | 89% | 1016.2 hPa | 0 mm | - | 128 W/m² | - |
* Rain latest hour (hover to see other rain measurements)
** Current wind speed in m/s (hover to see current wind gust speed)